Location: Recife
(8.0585°S, 34.8848°W)
Time: 11:19:39
(UTC-03:00)

SR - Pass Details

Date: 14 April 2026
Orbit: 568 x 852 km, 66.7° (Epoch: 12 May)

Event Time Altitude Azimuth Distance (km) Brightness Sun altitude
Rises 23:36:25 0° 8° (N) 3,398 - -85.5°
Reaches altitude 10° 23:39:27 10° 23° (NNE) 2,463 - -84.8°
Maximum altitude 23:43:44 22° 71° (ENE) 1,761 - -83.8°
Drops below altitude 10° 23:47:55 10° 120° (ESE) 2,412 - -82.8°
Sets 23:50:50 0° 135° (SE) 3,309 - -82.1°
